owner,sensor,date,latitude,longitude,air_temperature,qcFlag 
WAVCIS,ioos:station:WAVCIS:CSI06:1,2013-01-01T00:00:00Z,28.8667,-90.4833,22.24,11111222 
WAVCIS,ioos:station:WAVCIS:CSI06:1,2013-01-01T01:00:00Z,28.8667,-90.4833,22.39,11111222 
WAVCIS,ioos:station:WAVCIS:CSI06:1,2013-01-01T02:00:00Z,28.8667,-90.4833,22.45,11111222 
WAVCIS,ioos:station:WAVCIS:CSI06:1,2013-01-01T03:00:00Z,28.8667,-90.4833,22.46,11111222 
WAVCIS,ioos:station:WAVCIS:CSI06:1,2013-01-01T04:00:00Z,28.8667,-90.4833,22.76,11111222 
WAVCIS,ioos:station:WAVCIS:CSI06:1,2013-01-01T05:00:00Z,28.8667,-90.4833,22.66,11111222 
WAVCIS,ioos:station:WAVCIS:CSI06:1,2013-01-01T06:00:00Z,28.8667,-90.4833,22.59,11111222 
WAVCIS,ioos:station:WAVCIS:CSI06:1,2013-01-01T07:00:00Z,28.8667,-90.4833,22.6,11111222 
WAVCIS,ioos:station:WAVCIS:CSI06:1,2013-01-01T08:00:00Z,28.8667,-90.4833,22.48,11111222 
WAVCIS,ioos:station:WAVCIS:CSI06:1,2013-01-01T09:00:00Z,28.8667,-90.4833,22.63,11111222 
WAVCIS,ioos:station:WAVCIS:CSI06:1,2013-01-01T10:00:00Z,28.8667,-90.4833,22.76,11111222 
WAVCIS,ioos:station:WAVCIS:CSI06:1,2013-01-01T11:00:00Z,28.8667,-90.4833,22.75,11111222 
WAVCIS,ioos:station:WAVCIS:CSI06:1,2013-01-01T12:00:00Z,28.8667,-90.4833,22.74,11111222 
WAVCIS,ioos:station:WAVCIS:CSI06:1,2013-01-01T13:00:00Z,28.8667,-90.4833,22.79,11111222 
WAVCIS,ioos:station:WAVCIS:CSI06:1,2013-01-01T14:00:00Z,28.8667,-90.4833,22.98,11111222 
WAVCIS,ioos:station:WAVCIS:CSI06:1,2013-01-01T15:00:00Z,28.8667,-90.4833,23.21,11111222 
WAVCIS,ioos:station:WAVCIS:CSI06:1,2013-01-01T16:00:00Z,28.8667,-90.4833,23.38,11111222 
WAVCIS,ioos:station:WAVCIS:CSI06:1,2013-01-01T17:00:00Z,28.8667,-90.4833,23.66,11111222 
WAVCIS,ioos:station:WAVCIS:CSI06:1,2013-01-01T18:00:00Z,28.8667,-90.4833,23.83,11111222 
WAVCIS,ioos:station:WAVCIS:CSI06:1,2013-01-01T19:00:00Z,28.8667,-90.4833,23.87,11111222 
WAVCIS,ioos:station:WAVCIS:CSI06:1,2013-01-01T20:00:00Z,28.8667,-90.4833,23.82,11111222 
WAVCIS,ioos:station:WAVCIS:CSI06:1,2013-01-01T21:00:00Z,28.8667,-90.4833,23.75,11111222 
WAVCIS,ioos:station:WAVCIS:CSI06:1,2013-01-01T22:00:00Z,28.8667,-90.4833,23.62,11111222 
WAVCIS,ioos:station:WAVCIS:CSI06:1,2013-01-01T23:00:00Z,28.8667,-90.4833,23.45,11111222 
WAVCIS,ioos:station:WAVCIS:CSI06:1,2013-01-02T00:00:00Z,28.8667,-90.4833,23.49,11111222 
WAVCIS,ioos:station:WAVCIS:CSI06:1,2013-01-02T01:00:00Z,28.8667,-90.4833,21.55,11111222 
WAVCIS,ioos:station:WAVCIS:CSI06:1,2013-01-02T02:00:00Z,28.8667,-90.4833,17.85,11111222 
WAVCIS,ioos:station:WAVCIS:CSI06:1,2013-01-02T03:00:00Z,28.8667,-90.4833,17.43,11111222 
WAVCIS,ioos:station:WAVCIS:CSI06:1,2013-01-02T04:00:00Z,28.8667,-90.4833,16.53,11111222 
WAVCIS,ioos:station:WAVCIS:CSI06:1,2013-01-02T05:00:00Z,28.8667,-90.4833,16.07,11111222 
WAVCIS,ioos:station:WAVCIS:CSI06:1,2013-01-02T06:00:00Z,28.8667,-90.4833,15.88,11111222 
WAVCIS,ioos:station:WAVCIS:CSI06:1,2013-01-02T07:00:00Z,28.8667,-90.4833,15.79,11111222 
WAVCIS,ioos:station:WAVCIS:CSI06:1,2013-01-02T08:00:00Z,28.8667,-90.4833,15.4,11111222 
WAVCIS,ioos:station:WAVCIS:CSI06:1,2013-01-02T09:00:00Z,28.8667,-90.4833,14.94,11111222 
WAVCIS,ioos:station:WAVCIS:CSI06:1,2013-01-02T10:00:00Z,28.8667,-90.4833,14.55,11111222 
WAVCIS,ioos:station:WAVCIS:CSI06:1,2013-01-02T11:00:00Z,28.8667,-90.4833,14.33,11111222 
WAVCIS,ioos:station:WAVCIS:CSI06:1,2013-01-02T12:00:00Z,28.8667,-90.4833,13.78,11111222 
WAVCIS,ioos:station:WAVCIS:CSI06:1,2013-01-02T13:00:00Z,28.8667,-90.4833,13.56,11111222 
WAVCIS,ioos:station:WAVCIS:CSI06:1,2013-01-02T14:00:00Z,28.8667,-90.4833,12.98,11111222 
WAVCIS,ioos:station:WAVCIS:CSI06:1,2013-01-02T15:00:00Z,28.8667,-90.4833,12.46,11111222 
WAVCIS,ioos:station:WAVCIS:CSI06:1,2013-01-02T16:00:00Z,28.8667,-90.4833,12.23,11111222 
WAVCIS,ioos:station:WAVCIS:CSI06:1,2013-01-02T17:00:00Z,28.8667,-90.4833,12.16,11111222 
WAVCIS,ioos:station:WAVCIS:CSI06:1,2013-01-02T18:00:00Z,28.8667,-90.4833,12.07,11111222 
WAVCIS,ioos:station:WAVCIS:CSI06:1,2013-01-02T19:00:00Z,28.8667,-90.4833,12.19,11111222 
WAVCIS,ioos:station:WAVCIS:CSI06:1,2013-01-02T20:00:00Z,28.8667,-90.4833,12.24,11111222 
WAVCIS,ioos:station:WAVCIS:CSI06:1,2013-01-02T21:00:00Z,28.8667,-90.4833,12.55,11111222 
WAVCIS,ioos:station:WAVCIS:CSI06:1,2013-01-02T22:00:00Z,28.8667,-90.4833,12.6,11111222 
WAVCIS,ioos:station:WAVCIS:CSI06:1,2013-01-02T23:00:00Z,28.8667,-90.4833,13.43,11111222 
WAVCIS,ioos:station:WAVCIS:CSI06:1,2013-01-03T00:00:00Z,28.8667,-90.4833,13.42,11111222 
WAVCIS,ioos:station:WAVCIS:CSI06:1,2013-01-03T01:00:00Z,28.8667,-90.4833,13.28,11111222 
WAVCIS,ioos:station:WAVCIS:CSI06:1,2013-01-03T02:00:00Z,28.8667,-90.4833,12.24,11111222 
WAVCIS,ioos:station:WAVCIS:CSI06:1,2013-01-03T03:00:00Z,28.8667,-90.4833,12.05,11111222 
WAVCIS,ioos:station:WAVCIS:CSI06:1,2013-01-03T04:00:00Z,28.8667,-90.4833,11.93,11111222 
WAVCIS,ioos:station:WAVCIS:CSI06:1,2013-01-03T05:00:00Z,28.8667,-90.4833,11.42,11111222 
WAVCIS,ioos:station:WAVCIS:CSI06:1,2013-01-03T06:00:00Z,28.8667,-90.4833,10.88,11111222 
WAVCIS,ioos:station:WAVCIS:CSI06:1,2013-01-03T07:00:00Z,28.8667,-90.4833,11.06,11111222 
WAVCIS,ioos:station:WAVCIS:CSI06:1,2013-01-03T08:00:00Z,28.8667,-90.4833,10.63,11111222 
WAVCIS,ioos:station:WAVCIS:CSI06:1,2013-01-03T09:00:00Z,28.8667,-90.4833,10.76,11111222 
WAVCIS,ioos:station:WAVCIS:CSI06:1,2013-01-03T10:00:00Z,28.8667,-90.4833,10.88,11111222 
WAVCIS,ioos:station:WAVCIS:CSI06:1,2013-01-03T11:00:00Z,28.8667,-90.4833,10.69,11111222 
WAVCIS,ioos:station:WAVCIS:CSI06:1,2013-01-03T12:00:00Z,28.8667,-90.4833,10.06,11111222 
WAVCIS,ioos:station:WAVCIS:CSI06:1,2013-01-03T13:00:00Z,28.8667,-90.4833,10.06,11111222 
WAVCIS,ioos:station:WAVCIS:CSI06:1,2013-01-03T14:00:00Z,28.8667,-90.4833,10.5,11111222 
WAVCIS,ioos:station:WAVCIS:CSI06:1,2013-01-03T15:00:00Z,28.8667,-90.4833,9.95,11111222 
WAVCIS,ioos:station:WAVCIS:CSI06:1,2013-01-03T16:00:00Z,28.8667,-90.4833,9.79,11111222 
WAVCIS,ioos:station:WAVCIS:CSI06:1,2013-01-03T17:00:00Z,28.8667,-90.4833,9.97,11111222 
WAVCIS,ioos:station:WAVCIS:CSI06:1,2013-01-03T18:00:00Z,28.8667,-90.4833,10.0,11111222 
WAVCIS,ioos:station:WAVCIS:CSI06:1,2013-01-03T19:00:00Z,28.8667,-90.4833,10.12,11111222 
WAVCIS,ioos:station:WAVCIS:CSI06:1,2013-01-03T20:00:00Z,28.8667,-90.4833,10.28,11111222 
WAVCIS,ioos:station:WAVCIS:CSI06:1,2013-01-03T21:00:00Z,28.8667,-90.4833,10.67,11111222 
WAVCIS,ioos:station:WAVCIS:CSI06:1,2013-01-03T22:00:00Z,28.8667,-90.4833,10.98,11111222 
WAVCIS,ioos:station:WAVCIS:CSI06:1,2013-01-03T23:00:00Z,28.8667,-90.4833,11.41,11111222 
WAVCIS,ioos:station:WAVCIS:CSI06:1,2013-01-04T00:00:00Z,28.8667,-90.4833,11.29,11111222 
WAVCIS,ioos:station:WAVCIS:CSI06:1,2013-01-04T01:00:00Z,28.8667,-90.4833,11.39,11111222 
WAVCIS,ioos:station:WAVCIS:CSI06:1,2013-01-04T02:00:00Z,28.8667,-90.4833,11.99,11111222 
WAVCIS,ioos:station:WAVCIS:CSI06:1,2013-01-04T03:00:00Z,28.8667,-90.4833,11.97,11111222 
WAVCIS,ioos:station:WAVCIS:CSI06:1,2013-01-04T04:00:00Z,28.8667,-90.4833,11.77,11111222 
WAVCIS,ioos:station:WAVCIS:CSI06:1,2013-01-04T05:00:00Z,28.8667,-90.4833,11.52,11111222 
WAVCIS,ioos:station:WAVCIS:CSI06:1,2013-01-04T06:00:00Z,28.8667,-90.4833,11.27,11111222 
WAVCIS,ioos:station:WAVCIS:CSI06:1,2013-01-04T07:00:00Z,28.8667,-90.4833,11.08,11111222 
WAVCIS,ioos:station:WAVCIS:CSI06:1,2013-01-04T08:00:00Z,28.8667,-90.4833,10.83,11111222 
WAVCIS,ioos:station:WAVCIS:CSI06:1,2013-01-04T09:00:00Z,28.8667,-90.4833,10.7,11111222 
WAVCIS,ioos:station:WAVCIS:CSI06:1,2013-01-04T10:00:00Z,28.8667,-90.4833,10.68,11111222 
WAVCIS,ioos:station:WAVCIS:CSI06:1,2013-01-04T11:00:00Z,28.8667,-90.4833,11.26,11111222 
WAVCIS,ioos:station:WAVCIS:CSI06:1,2013-01-04T12:00:00Z,28.8667,-90.4833,11.2,11111222 
WAVCIS,ioos:station:WAVCIS:CSI06:1,2013-01-04T13:00:00Z,28.8667,-90.4833,11.32,11111222 
WAVCIS,ioos:station:WAVCIS:CSI06:1,2013-01-04T14:00:00Z,28.8667,-90.4833,10.59,11111222 
WAVCIS,ioos:station:WAVCIS:CSI06:1,2013-01-04T15:00:00Z,28.8667,-90.4833,11.1,11111222 
WAVCIS,ioos:station:WAVCIS:CSI06:1,2013-01-04T16:00:00Z,28.8667,-90.4833,11.23,11111222 
WAVCIS,ioos:station:WAVCIS:CSI06:1,2013-01-04T17:00:00Z,28.8667,-90.4833,11.61,11111222 
WAVCIS,ioos:station:WAVCIS:CSI06:1,2013-01-04T18:00:00Z,28.8667,-90.4833,12.37,11111222 
WAVCIS,ioos:station:WAVCIS:CSI06:1,2013-01-04T19:00:00Z,28.8667,-90.4833,12.6,11111222 
WAVCIS,ioos:station:WAVCIS:CSI06:1,2013-01-04T20:00:00Z,28.8667,-90.4833,12.26,11111222 
WAVCIS,ioos:station:WAVCIS:CSI06:1,2013-01-04T21:00:00Z,28.8667,-90.4833,13.14,11111222 
WAVCIS,ioos:station:WAVCIS:CSI06:1,2013-01-04T22:00:00Z,28.8667,-90.4833,13.69,11111222 
WAVCIS,ioos:station:WAVCIS:CSI06:1,2013-01-04T23:00:00Z,28.8667,-90.4833,13.46,11111222 
WAVCIS,ioos:station:WAVCIS:CSI06:1,2013-01-05T00:00:00Z,28.8667,-90.4833,13.52,11111222 
WAVCIS,ioos:station:WAVCIS:CSI06:1,2013-01-05T01:00:00Z,28.8667,-90.4833,13.81,11111222 
WAVCIS,ioos:station:WAVCIS:CSI06:1,2013-01-05T02:00:00Z,28.8667,-90.4833,14.17,11111222 
WAVCIS,ioos:station:WAVCIS:CSI06:1,2013-01-05T03:00:00Z,28.8667,-90.4833,14.35,11111222 
WAVCIS,ioos:station:WAVCIS:CSI06:1,2013-01-05T04:00:00Z,28.8667,-90.4833,14.75,11111222 
WAVCIS,ioos:station:WAVCIS:CSI06:1,2013-01-05T05:00:00Z,28.8667,-90.4833,14.79,11111222 
WAVCIS,ioos:station:WAVCIS:CSI06:1,2013-01-05T06:00:00Z,28.8667,-90.4833,15.13,11111222 
WAVCIS,ioos:station:WAVCIS:CSI06:1,2013-01-05T07:00:00Z,28.8667,-90.4833,15.89,11111222 
WAVCIS,ioos:station:WAVCIS:CSI06:1,2013-01-05T08:00:00Z,28.8667,-90.4833,16.18,11111222 
WAVCIS,ioos:station:WAVCIS:CSI06:1,2013-01-05T09:00:00Z,28.8667,-90.4833,16.22,11111222 
WAVCIS,ioos:station:WAVCIS:CSI06:1,2013-01-05T10:00:00Z,28.8667,-90.4833,16.65,11111222 
WAVCIS,ioos:station:WAVCIS:CSI06:1,2013-01-05T11:00:00Z,28.8667,-90.4833,17.18,11111222 
WAVCIS,ioos:station:WAVCIS:CSI06:1,2013-01-05T12:00:00Z,28.8667,-90.4833,17.57,11111222 
WAVCIS,ioos:station:WAVCIS:CSI06:1,2013-01-05T13:00:00Z,28.8667,-90.4833,17.75,11111222 
WAVCIS,ioos:station:WAVCIS:CSI06:1,2013-01-05T14:00:00Z,28.8667,-90.4833,15.46,11111222 
WAVCIS,ioos:station:WAVCIS:CSI06:1,2013-01-05T15:00:00Z,28.8667,-90.4833,14.4,11111222 
WAVCIS,ioos:station:WAVCIS:CSI06:1,2013-01-05T16:00:00Z,28.8667,-90.4833,14.26,11111222 
WAVCIS,ioos:station:WAVCIS:CSI06:1,2013-01-05T17:00:00Z,28.8667,-90.4833,14.74,11111222 
WAVCIS,ioos:station:WAVCIS:CSI06:1,2013-01-05T18:00:00Z,28.8667,-90.4833,15.32,11111222 
WAVCIS,ioos:station:WAVCIS:CSI06:1,2013-01-05T19:00:00Z,28.8667,-90.4833,16.94,11111222 
WAVCIS,ioos:station:WAVCIS:CSI06:1,2013-01-05T20:00:00Z,28.8667,-90.4833,18.08,11111222 
WAVCIS,ioos:station:WAVCIS:CSI06:1,2013-01-05T21:00:00Z,28.8667,-90.4833,20.15,11111222 
WAVCIS,ioos:station:WAVCIS:CSI06:1,2013-01-05T22:00:00Z,28.8667,-90.4833,15.85,11111222 
WAVCIS,ioos:station:WAVCIS:CSI06:1,2013-01-05T23:00:00Z,28.8667,-90.4833,15.26,11111222 
WAVCIS,ioos:station:WAVCIS:CSI06:1,2013-01-06T00:00:00Z,28.8667,-90.4833,16.09,11111222 
WAVCIS,ioos:station:WAVCIS:CSI06:1,2013-01-06T01:00:00Z,28.8667,-90.4833,15.17,11111222 
WAVCIS,ioos:station:WAVCIS:CSI06:1,2013-01-06T02:00:00Z,28.8667,-90.4833,14.99,11111222 
WAVCIS,ioos:station:WAVCIS:CSI06:1,2013-01-06T03:00:00Z,28.8667,-90.4833,15.33,11111222 
WAVCIS,ioos:station:WAVCIS:CSI06:1,2013-01-06T04:00:00Z,28.8667,-90.4833,16.37,11111222 
WAVCIS,ioos:station:WAVCIS:CSI06:1,2013-01-06T05:00:00Z,28.8667,-90.4833,16.68,11111222 
WAVCIS,ioos:station:WAVCIS:CSI06:1,2013-01-06T06:00:00Z,28.8667,-90.4833,17.24,11111222 
WAVCIS,ioos:station:WAVCIS:CSI06:1,2013-01-06T07:00:00Z,28.8667,-90.4833,17.05,11111222 
WAVCIS,ioos:station:WAVCIS:CSI06:1,2013-01-06T08:00:00Z,28.8667,-90.4833,17.18,11111222 
WAVCIS,ioos:station:WAVCIS:CSI06:1,2013-01-06T09:00:00Z,28.8667,-90.4833,17.58,11111222 
WAVCIS,ioos:station:WAVCIS:CSI06:1,2013-01-06T10:00:00Z,28.8667,-90.4833,16.88,11111222 
WAVCIS,ioos:station:WAVCIS:CSI06:1,2013-01-06T11:00:00Z,28.8667,-90.4833,18.09,11111222 
WAVCIS,ioos:station:WAVCIS:CSI06:1,2013-01-06T12:00:00Z,28.8667,-90.4833,18.97,11111222 
WAVCIS,ioos:station:WAVCIS:CSI06:1,2013-01-06T13:00:00Z,28.8667,-90.4833,19.5,11111222 
WAVCIS,ioos:station:WAVCIS:CSI06:1,2013-01-06T14:00:00Z,28.8667,-90.4833,15.04,11111222 
WAVCIS,ioos:station:WAVCIS:CSI06:1,2013-01-06T15:00:00Z,28.8667,-90.4833,13.33,11111222 
WAVCIS,ioos:station:WAVCIS:CSI06:1,2013-01-06T16:00:00Z,28.8667,-90.4833,12.69,11111222 
WAVCIS,ioos:station:WAVCIS:CSI06:1,2013-01-06T17:00:00Z,28.8667,-90.4833,12.57,11111222 
WAVCIS,ioos:station:WAVCIS:CSI06:1,2013-01-06T18:00:00Z,28.8667,-90.4833,12.05,11111222 
WAVCIS,ioos:station:WAVCIS:CSI06:1,2013-01-06T19:00:00Z,28.8667,-90.4833,12.33,11111222 
WAVCIS,ioos:station:WAVCIS:CSI06:1,2013-01-06T20:00:00Z,28.8667,-90.4833,12.22,11111222 
WAVCIS,ioos:station:WAVCIS:CSI06:1,2013-01-06T21:00:00Z,28.8667,-90.4833,12.78,11111222 
WAVCIS,ioos:station:WAVCIS:CSI06:1,2013-01-06T22:00:00Z,28.8667,-90.4833,12.68,11111222 
WAVCIS,ioos:station:WAVCIS:CSI06:1,2013-01-06T23:00:00Z,28.8667,-90.4833,12.95,11111222 
WAVCIS,ioos:station:WAVCIS:CSI06:1,2013-01-07T00:00:00Z,28.8667,-90.4833,13.17,11111222 
WAVCIS,ioos:station:WAVCIS:CSI06:1,2013-01-07T01:00:00Z,28.8667,-90.4833,13.36,11111222 
WAVCIS,ioos:station:WAVCIS:CSI06:1,2013-01-07T02:00:00Z,28.8667,-90.4833,13.81,11111222 
WAVCIS,ioos:station:WAVCIS:CSI06:1,2013-01-07T03:00:00Z,28.8667,-90.4833,13.21,11111222 
WAVCIS,ioos:station:WAVCIS:CSI06:1,2013-01-07T04:00:00Z,28.8667,-90.4833,13.26,11111222 
WAVCIS,ioos:station:WAVCIS:CSI06:1,2013-01-07T05:00:00Z,28.8667,-90.4833,13.57,11111222 
WAVCIS,ioos:station:WAVCIS:CSI06:1,2013-01-07T06:00:00Z,28.8667,-90.4833,13.69,11111222 
WAVCIS,ioos:station:WAVCIS:CSI06:1,2013-01-07T07:00:00Z,28.8667,-90.4833,13.83,11111222 
WAVCIS,ioos:station:WAVCIS:CSI06:1,2013-01-07T08:00:00Z,28.8667,-90.4833,13.61,11111222 
WAVCIS,ioos:station:WAVCIS:CSI06:1,2013-01-07T09:00:00Z,28.8667,-90.4833,13.4,11111222 
WAVCIS,ioos:station:WAVCIS:CSI06:1,2013-01-07T10:00:00Z,28.8667,-90.4833,13.21,11111222 
WAVCIS,ioos:station:WAVCIS:CSI06:1,2013-01-07T11:00:00Z,28.8667,-90.4833,12.98,11111222 
WAVCIS,ioos:station:WAVCIS:CSI06:1,2013-01-07T12:00:00Z,28.8667,-90.4833,13.43,11111222 
WAVCIS,ioos:station:WAVCIS:CSI06:1,2013-01-07T13:00:00Z,28.8667,-90.4833,14.07,11111222 
WAVCIS,ioos:station:WAVCIS:CSI06:1,2013-01-07T14:00:00Z,28.8667,-90.4833,14.36,11111222 
WAVCIS,ioos:station:WAVCIS:CSI06:1,2013-01-07T15:00:00Z,28.8667,-90.4833,14.84,11111222 
WAVCIS,ioos:station:WAVCIS:CSI06:1,2013-01-07T16:00:00Z,28.8667,-90.4833,15.28,11111222 
WAVCIS,ioos:station:WAVCIS:CSI06:1,2013-01-07T17:00:00Z,28.8667,-90.4833,15.81,11111222 
WAVCIS,ioos:station:WAVCIS:CSI06:1,2013-01-07T18:00:00Z,28.8667,-90.4833,15.41,11111222 
WAVCIS,ioos:station:WAVCIS:CSI06:1,2013-01-07T19:00:00Z,28.8667,-90.4833,15.46,11111222 
WAVCIS,ioos:station:WAVCIS:CSI06:1,2013-01-07T20:00:00Z,28.8667,-90.4833,15.33,11111222 
WAVCIS,ioos:station:WAVCIS:CSI06:1,2013-01-07T21:00:00Z,28.8667,-90.4833,15.48,11111222 
WAVCIS,ioos:station:WAVCIS:CSI06:1,2013-01-07T22:00:00Z,28.8667,-90.4833,15.56,11111222 
WAVCIS,ioos:station:WAVCIS:CSI06:1,2013-01-07T23:00:00Z,28.8667,-90.4833,15.83,11111222 
WAVCIS,ioos:station:WAVCIS:CSI06:1,2013-01-08T00:00:00Z,28.8667,-90.4833,15.3,11111222 
WAVCIS,ioos:station:WAVCIS:CSI06:1,2013-01-08T01:00:00Z,28.8667,-90.4833,15.49,11111222 
WAVCIS,ioos:station:WAVCIS:CSI06:1,2013-01-08T02:00:00Z,28.8667,-90.4833,15.75,11111222 
WAVCIS,ioos:station:WAVCIS:CSI06:1,2013-01-08T03:00:00Z,28.8667,-90.4833,16.23,11111222 
WAVCIS,ioos:station:WAVCIS:CSI06:1,2013-01-08T04:00:00Z,28.8667,-90.4833,17.31,11111222 
WAVCIS,ioos:station:WAVCIS:CSI06:1,2013-01-08T05:00:00Z,28.8667,-90.4833,18.23,11111222 
WAVCIS,ioos:station:WAVCIS:CSI06:1,2013-01-08T06:00:00Z,28.8667,-90.4833,18.88,11111222 
WAVCIS,ioos:station:WAVCIS:CSI06:1,2013-01-08T07:00:00Z,28.8667,-90.4833,19.06,11111222 
WAVCIS,ioos:station:WAVCIS:CSI06:1,2013-01-08T08:00:00Z,28.8667,-90.4833,19.36,11111222 
WAVCIS,ioos:station:WAVCIS:CSI06:1,2013-01-08T09:00:00Z,28.8667,-90.4833,20.03,11111222 
WAVCIS,ioos:station:WAVCIS:CSI06:1,2013-01-08T10:00:00Z,28.8667,-90.4833,19.51,11111222 
WAVCIS,ioos:station:WAVCIS:CSI06:1,2013-01-08T11:00:00Z,28.8667,-90.4833,19.45,11111222 
WAVCIS,ioos:station:WAVCIS:CSI06:1,2013-01-08T12:00:00Z,28.8667,-90.4833,19.53,11111222 
WAVCIS,ioos:station:WAVCIS:CSI06:1,2013-01-08T13:00:00Z,28.8667,-90.4833,20.23,11111222 
WAVCIS,ioos:station:WAVCIS:CSI06:1,2013-01-08T14:00:00Z,28.8667,-90.4833,22.29,11111222 
WAVCIS,ioos:station:WAVCIS:CSI06:1,2013-01-08T15:00:00Z,28.8667,-90.4833,22.44,11111222 
WAVCIS,ioos:station:WAVCIS:CSI06:1,2013-01-08T16:00:00Z,28.8667,-90.4833,22.65,11111222 
WAVCIS,ioos:station:WAVCIS:CSI06:1,2013-01-08T17:00:00Z,28.8667,-90.4833,21.47,11111222 
WAVCIS,ioos:station:WAVCIS:CSI06:1,2013-01-08T18:00:00Z,28.8667,-90.4833,22.38,11111222 
WAVCIS,ioos:station:WAVCIS:CSI06:1,2013-01-08T19:00:00Z,28.8667,-90.4833,22.66,11111222 
WAVCIS,ioos:station:WAVCIS:CSI06:1,2013-01-08T20:00:00Z,28.8667,-90.4833,21.73,11111222 
WAVCIS,ioos:station:WAVCIS:CSI06:1,2013-01-08T21:00:00Z,28.8667,-90.4833,21.37,11111222 
WAVCIS,ioos:station:WAVCIS:CSI06:1,2013-01-08T22:00:00Z,28.8667,-90.4833,22.62,11111222 
WAVCIS,ioos:station:WAVCIS:CSI06:1,2013-01-08T23:00:00Z,28.8667,-90.4833,23.16,11111222 
WAVCIS,ioos:station:WAVCIS:CSI06:1,2013-01-09T00:00:00Z,28.8667,-90.4833,22.99,11111222 
WAVCIS,ioos:station:WAVCIS:CSI06:1,2013-01-09T01:00:00Z,28.8667,-90.4833,23.15,11111222 
WAVCIS,ioos:station:WAVCIS:CSI06:1,2013-01-09T02:00:00Z,28.8667,-90.4833,23.29,11111222 
WAVCIS,ioos:station:WAVCIS:CSI06:1,2013-01-09T03:00:00Z,28.8667,-90.4833,23.34,11111222 
WAVCIS,ioos:station:WAVCIS:CSI06:1,2013-01-09T04:00:00Z,28.8667,-90.4833,23.46,11111222 
WAVCIS,ioos:station:WAVCIS:CSI06:1,2013-01-09T05:00:00Z,28.8667,-90.4833,23.34,11111222 
WAVCIS,ioos:station:WAVCIS:CSI06:1,2013-01-09T06:00:00Z,28.8667,-90.4833,23.48,11111222 
WAVCIS,ioos:station:WAVCIS:CSI06:1,2013-01-09T07:00:00Z,28.8667,-90.4833,23.29,11111222 
WAVCIS,ioos:station:WAVCIS:CSI06:1,2013-01-09T08:00:00Z,28.8667,-90.4833,23.31,11111222 
WAVCIS,ioos:station:WAVCIS:CSI06:1,2013-01-09T09:00:00Z,28.8667,-90.4833,23.29,11111222 
WAVCIS,ioos:station:WAVCIS:CSI06:1,2013-01-09T10:00:00Z,28.8667,-90.4833,23.24,11111222 
WAVCIS,ioos:station:WAVCIS:CSI06:1,2013-01-09T11:00:00Z,28.8667,-90.4833,23.19,11111222 
WAVCIS,ioos:station:WAVCIS:CSI06:1,2013-01-09T12:00:00Z,28.8667,-90.4833,23.21,11111222 
WAVCIS,ioos:station:WAVCIS:CSI06:1,2013-01-09T13:00:00Z,28.8667,-90.4833,23.23,11111222 
WAVCIS,ioos:station:WAVCIS:CSI06:1,2013-01-09T14:00:00Z,28.8667,-90.4833,23.16,11111222 
WAVCIS,ioos:station:WAVCIS:CSI06:1,2013-01-09T15:00:00Z,28.8667,-90.4833,23.36,11111222 
WAVCIS,ioos:station:WAVCIS:CSI06:1,2013-01-09T16:00:00Z,28.8667,-90.4833,23.67,11111222 
WAVCIS,ioos:station:WAVCIS:CSI06:1,2013-01-09T17:00:00Z,28.8667,-90.4833,23.62,11111222 
WAVCIS,ioos:station:WAVCIS:CSI06:1,2013-01-09T18:00:00Z,28.8667,-90.4833,23.48,11111222 
WAVCIS,ioos:station:WAVCIS:CSI06:1,2013-01-09T19:00:00Z,28.8667,-90.4833,23.48,11111222 
WAVCIS,ioos:station:WAVCIS:CSI06:1,2013-01-09T20:00:00Z,28.8667,-90.4833,23.78,11111222 
WAVCIS,ioos:station:WAVCIS:CSI06:1,2013-01-09T21:00:00Z,28.8667,-90.4833,23.72,11111222 
WAVCIS,ioos:station:WAVCIS:CSI06:1,2013-01-09T22:00:00Z,28.8667,-90.4833,23.85,11111222 
WAVCIS,ioos:station:WAVCIS:CSI06:1,2013-01-09T23:00:00Z,28.8667,-90.4833,23.91,11111222 
WAVCIS,ioos:station:WAVCIS:CSI06:1,2013-01-10T00:00:00Z,28.8667,-90.4833,24.06,11111222 
WAVCIS,ioos:station:WAVCIS:CSI06:1,2013-01-10T01:00:00Z,28.8667,-90.4833,24.0,11111222 
WAVCIS,ioos:station:WAVCIS:CSI06:1,2013-01-10T02:00:00Z,28.8667,-90.4833,23.94,11111222 
WAVCIS,ioos:station:WAVCIS:CSI06:1,2013-01-10T03:00:00Z,28.8667,-90.4833,23.82,11111222 
WAVCIS,ioos:station:WAVCIS:CSI06:1,2013-01-10T04:00:00Z,28.8667,-90.4833,23.95,11111222 
WAVCIS,ioos:station:WAVCIS:CSI06:1,2013-01-10T05:00:00Z,28.8667,-90.4833,24.18,11111222 
WAVCIS,ioos:station:WAVCIS:CSI06:1,2013-01-10T06:00:00Z,28.8667,-90.4833,24.14,11111222 
WAVCIS,ioos:station:WAVCIS:CSI06:1,2013-01-10T07:00:00Z,28.8667,-90.4833,24.28,11111222 
WAVCIS,ioos:station:WAVCIS:CSI06:1,2013-01-10T08:00:00Z,28.8667,-90.4833,24.31,11111222 
WAVCIS,ioos:station:WAVCIS:CSI06:1,2013-01-10T09:00:00Z,28.8667,-90.4833,24.16,11111222 
WAVCIS,ioos:station:WAVCIS:CSI06:1,2013-01-10T10:00:00Z,28.8667,-90.4833,24.28,11111222 
WAVCIS,ioos:station:WAVCIS:CSI06:1,2013-01-10T11:00:00Z,28.8667,-90.4833,24.31,11111222 
WAVCIS,ioos:station:WAVCIS:CSI06:1,2013-01-10T12:00:00Z,28.8667,-90.4833,24.37,11111222 
WAVCIS,ioos:station:WAVCIS:CSI06:1,2013-01-10T13:00:00Z,28.8667,-90.4833,24.61,11111222 
WAVCIS,ioos:station:WAVCIS:CSI06:1,2013-01-10T14:00:00Z,28.8667,-90.4833,24.66,11111222 
WAVCIS,ioos:station:WAVCIS:CSI06:1,2013-01-10T15:00:00Z,28.8667,-90.4833,24.47,11111222 
WAVCIS,ioos:station:WAVCIS:CSI06:1,2013-01-10T16:00:00Z,28.8667,-90.4833,20.09,11111222 
WAVCIS,ioos:station:WAVCIS:CSI06:1,2013-01-10T17:00:00Z,28.8667,-90.4833,19.93,11111222 
WAVCIS,ioos:station:WAVCIS:CSI06:1,2013-01-10T18:00:00Z,28.8667,-90.4833,21.02,11111222 
WAVCIS,ioos:station:WAVCIS:CSI06:1,2013-01-10T19:00:00Z,28.8667,-90.4833,20.81,11111222 
WAVCIS,ioos:station:WAVCIS:CSI06:1,2013-01-10T20:00:00Z,28.8667,-90.4833,20.8,11111222 
WAVCIS,ioos:station:WAVCIS:CSI06:1,2013-01-10T21:00:00Z,28.8667,-90.4833,20.81,11111222 
WAVCIS,ioos:station:WAVCIS:CSI06:1,2013-01-10T22:00:00Z,28.8667,-90.4833,20.73,11111222 
WAVCIS,ioos:station:WAVCIS:CSI06:1,2013-01-10T23:00:00Z,28.8667,-90.4833,21.0,11111222 
WAVCIS,ioos:station:WAVCIS:CSI06:1,2013-01-11T00:00:00Z,28.8667,-90.4833,21.36,11111222 
WAVCIS,ioos:station:WAVCIS:CSI06:1,2013-01-11T01:00:00Z,28.8667,-90.4833,22.08,11111222 
WAVCIS,ioos:station:WAVCIS:CSI06:1,2013-01-11T02:00:00Z,28.8667,-90.4833,22.52,11111222 
WAVCIS,ioos:station:WAVCIS:CSI06:1,2013-01-11T03:00:00Z,28.8667,-90.4833,23.47,11111222 
WAVCIS,ioos:station:WAVCIS:CSI06:1,2013-01-11T04:00:00Z,28.8667,-90.4833,23.25,11111222 
WAVCIS,ioos:station:WAVCIS:CSI06:1,2013-01-11T05:00:00Z,28.8667,-90.4833,23.29,11111222 
WAVCIS,ioos:station:WAVCIS:CSI06:1,2013-01-11T06:00:00Z,28.8667,-90.4833,23.16,11111222 
WAVCIS,ioos:station:WAVCIS:CSI06:1,2013-01-11T07:00:00Z,28.8667,-90.4833,23.64,11111222 
WAVCIS,ioos:station:WAVCIS:CSI06:1,2013-01-11T08:00:00Z,28.8667,-90.4833,23.77,11111222 
WAVCIS,ioos:station:WAVCIS:CSI06:1,2013-01-11T09:00:00Z,28.8667,-90.4833,24.13,11111222 
WAVCIS,ioos:station:WAVCIS:CSI06:1,2013-01-11T10:00:00Z,28.8667,-90.4833,23.95,11111222 
WAVCIS,ioos:station:WAVCIS:CSI06:1,2013-01-11T11:00:00Z,28.8667,-90.4833,24.04,11111222 
WAVCIS,ioos:station:WAVCIS:CSI06:1,2013-01-11T12:00:00Z,28.8667,-90.4833,24.1,11111222 
WAVCIS,ioos:station:WAVCIS:CSI06:1,2013-01-11T13:00:00Z,28.8667,-90.4833,24.09,11111222 
WAVCIS,ioos:station:WAVCIS:CSI06:1,2013-01-11T14:00:00Z,28.8667,-90.4833,24.17,11111222 
WAVCIS,ioos:station:WAVCIS:CSI06:1,2013-01-11T15:00:00Z,28.8667,-90.4833,24.37,11111222 
WAVCIS,ioos:station:WAVCIS:CSI06:1,2013-01-11T16:00:00Z,28.8667,-90.4833,23.81,11111222 
WAVCIS,ioos:station:WAVCIS:CSI06:1,2013-01-11T17:00:00Z,28.8667,-90.4833,23.9,11111222 
WAVCIS,ioos:station:WAVCIS:CSI06:1,2013-01-11T18:00:00Z,28.8667,-90.4833,24.1,11111222 
WAVCIS,ioos:station:WAVCIS:CSI06:1,2013-01-11T19:00:00Z,28.8667,-90.4833,24.16,11111222 
WAVCIS,ioos:station:WAVCIS:CSI06:1,2013-01-11T20:00:00Z,28.8667,-90.4833,24.19,11111222 
WAVCIS,ioos:station:WAVCIS:CSI06:1,2013-01-11T21:00:00Z,28.8667,-90.4833,24.26,11111222 
WAVCIS,ioos:station:WAVCIS:CSI06:1,2013-01-11T22:00:00Z,28.8667,-90.4833,24.29,11111222 
WAVCIS,ioos:station:WAVCIS:CSI06:1,2013-01-11T23:00:00Z,28.8667,-90.4833,24.2,11111222 
WAVCIS,ioos:station:WAVCIS:CSI06:1,2013-01-12T00:00:00Z,28.8667,-90.4833,24.7,11111222 
WAVCIS,ioos:station:WAVCIS:CSI06:1,2013-01-12T01:00:00Z,28.8667,-90.4833,24.61,11111222 
WAVCIS,ioos:station:WAVCIS:CSI06:1,2013-01-12T02:00:00Z,28.8667,-90.4833,24.51,11111222 
WAVCIS,ioos:station:WAVCIS:CSI06:1,2013-01-12T03:00:00Z,28.8667,-90.4833,24.16,11111222 
WAVCIS,ioos:station:WAVCIS:CSI06:1,2013-01-12T04:00:00Z,28.8667,-90.4833,24.05,11111222 